Location: Newark
(55.2875°N, 3.1864°W)
Time: 20:42:25
(UTC+00:00)

ISS - Pass Details

Date: 04 February 2020
Orbit: 416 x 422 km, 51.6° (Epoch: 20 February)

Event Time Altitude Azimuth Distance (km) Brightness Sun altitude
Rises 18:17:45 0° 274° (W) 2,381 1.8 -12.0°
Reaches altitude 10° 18:20:04 10° 261° (W) 1,512 0.6 -12.3°
Maximum altitude 18:22:57 26° 203° (SSW) 867 -1.8 -12.8°
Drops below altitude 10° 18:25:50 10° 144° (SE) 1,504 -1.2 -13.2°
Enters shadow 18:26:24 - 140° (SE) 1,707 -1.0 -13.2°
